This is the latest recevied weather packets stored in our database for station/object K7D3. If no packets are shown the sender has not sent any weather packets the latest 10 day(s).
| Time | Temp. | Humidity | Pressure | Rain* | Wind** | Luminosity | Snow |
|---|---|---|---|---|---|---|---|
| 1777997335 | 10° C | 34% | - | 0 mm | 5.36 m/s, 0° | - | - |
| 1777996853 | 9.44° C | 38% | - | 0 mm | 6.71 m/s, 308° | - | - |
| 1777996374 | 10.56° C | 38% | - | 0 mm | 2.24 m/s, 354° | - | - |
| 1777995895 | 10° C | 37% | - | 0 mm | 4.02 m/s, 291° | - | - |
| 1777995413 | 10° C | 36% | - | 0 mm | 4.92 m/s, 328° | - | - |
| 1777994934 | 10° C | 38% | - | 0 mm | 3.13 m/s, 8° | - | - |
| 1777994455 | 10° C | 37% | - | 0 mm | 4.47 m/s, 336° | - | - |
| 1777993973 | 10° C | 36% | - | 0 mm | 4.47 m/s, 359° | - | - |
| 1777993495 | 9.44° C | 36% | - | 0 mm | 5.36 m/s, 309° | - | - |
| 1777993016 | 9.44° C | 36% | - | 0 mm | 5.81 m/s, 318° | - | - |
| 1777992534 | 9.44° C | 38% | - | 0 mm | 5.81 m/s, 312° | - | - |
| 1777992055 | 9.44° C | 44% | - | 0 mm | 3.58 m/s, 316° | - | - |
| 1777991576 | 9.44° C | 40% | - | 0 mm | 4.47 m/s, 347° | - | - |
| 1777991094 | 9.44° C | 40% | - | 0 mm | 4.47 m/s, 316° | - | - |
| 1777990616 | 8.89° C | 41% | - | 0 mm | 5.36 m/s, 13° | - | - |
| 1777989655 | 9.44° C | 43% | - | 0 mm | 4.02 m/s, 321° | - | - |
| 1777989176 | 8.89° C | 45% | - | 0 mm | 4.47 m/s, 349° | - | - |
| 1777988697 | 8.89° C | 45% | - | 0 mm | 4.02 m/s, 290° | - | - |
| 1777988215 | 8.89° C | 46% | - | 0 mm | 5.36 m/s, 326° | - | - |
| 1777987736 | 8.89° C | 47% | - | 0 mm | 3.58 m/s, 342° | - | - |
| 1777987258 | 8.89° C | 47% | - | 0 mm | 4.02 m/s, 308° | - | - |
| 1777986775 | 8.89° C | 49% | - | 0 mm | 2.68 m/s, 335° | - | - |
| 1777986297 | 8.33° C | 51% | - | 0 mm | 2.68 m/s, 336° | - | - |
| 1777985818 | 8.33° C | 53% | - | 0 mm | 3.13 m/s, 8° | - | - |
| 1777985335 | 8.33° C | 55% | - | 0 mm | 2.68 m/s, 14° | - | - |
* Rain latest hour (hover to see other rain measurements)
** Current wind speed in m/s (hover to see current wind gust speed)